Zurück zum Katalog

STARLINK-37667

AktivKommunikationSSO
NORAD 69045·PAYLOAD·🇺🇸 United States

Gestartet May 6, 2026 von Vandenberg Space Force Base

Loading…

Nächste Überflüge (nächste 24 Stunden)

TLE

AktuellSource: CelesTrak SupGP

Epoche: Sep 15, 2026, 03:40 UTC

1 69045C 26101W   26258.15326389 -.00025817  00000+0 -80131-3 0  2582
2 69045  97.2844 111.7465 0001936  93.1405 190.2666 15.33456099    12

Verfolge STARLINK-37667 in Echtzeit mit AllMySat

Download on the App Store